Retour au catalogue

STARLINK-35905

ActifCommunicationsVLEO
NORAD 67048·PAYLOAD·🇺🇸 United States

Lancé Dec 11, 2025 depuis Cape Canaveral Space Force Station

Loading…

Prochains Passages (prochaines 24 heures)

TLE

FraisSource: CelesTrak SupGP

Époque: Sep 15, 2026, 02:41 UTC

1 67048C 25294U   26258.11229167 -.00024014  00000+0 -86948-3 0  2587
2 67048  43.0046  48.3902 0001950 274.8766 245.0581 15.27601134    11

Suivez STARLINK-35905 en temps réel avec AllMySat

Download on the App Store